Tracking 20093 objects as of 14-Dec-2019
HD Live streaming from Space Station
objects crossing your sky now

COSMOS 2251 DEB

Track COSMOS 2251 DEB now!
10-day predictions


NORAD ID: 35284
Int'l Code: 1993-036AJN
Perigee: 765.9 km
Apogee: 792.3 km
Inclination: 74.0 °
Period: 100.3 minutes
Semi major axis: 7150 km
RCS: 0.0089 m2 (small)
Launch date: June 16, 1993
Source: Commonwealth of Independent States (former USSR) (CIS)
Launch site: PLESETSK MISSILE AND SPACE COMPLEX (PKMTR)

Note: This is SATELLITE DEBRIS
aabbcc
Your satellite tracking list
Your tracking list is empty




NASA's NSSDC Master Catalog

Two Line Element Set (TLE):
1 35284U 93036AJN 19347.41125792  .00000028  00000-0  18631-4 0  9991
2 35284  74.0497 328.2558 0018451 234.0988 278.5386 14.35939927557997
Source of the keplerian elements: AFSPC